FW1602 Weather Reports


time (UTC)temp
C
wind
direction
speed
KPH
gust
KPH
rain 1hr
cm
rain 24hr
cm
rain mn
cm
humidity
%
barometer
mb
20260504081504 13 285 6.4 9.7 0.00 0.15 0.00 60 1019.2
20260504050006 9 277 3.2 3.2 0.00 0.36 0.00 79 1019.0
20260504044505 8 279 3.2 3.2 0.00 0.41 0.00 83 1019.1
20260504043005 7 274 1.6 3.2 0.00 0.48 0.00 89 1019.3
20260504041505 5 0 0.0 0.0 0.00 0.58 0.00 93 1019.6
20260504040026 4 0 0.0 0.0 0.00 0.71 0.00 94 1019.9
20260504034526 3 301 1.6 3.2 0.00 0.81 0.00 93 1020.0
20260504033005 3 270 1.6 3.2 0.00 0.89 0.00 93 1019.9
20260504031505 3 263 1.6 3.2 0.00 0.97 0.00 93 1019.8
20260504030006 4 315 0.0 3.2 0.00 0.97 0.00 93 1019.8
20260504024505 3 315 0.0 3.2 0.00 0.99 0.00 92 1019.8
20260504023005 3 360 0.0 3.2 0.00 1.04 0.00 92 1019.8
20260504021505 4 0 0.0 0.0 0.00 1.09 0.00 91 1019.8
20260504020005 3 270 0.0 3.2 0.00 1.24 0.00 90 1019.9
20260504014505 4 315 0.0 3.2 0.00 1.32 0.00 90 1019.8
20260504013005 4 292 0.0 3.2 0.00 1.57 0.00 90 1019.8
20260504011505 4 0 0.0 0.0 0.00 1.78 0.00 89 1019.9
20260504010006 5 315 0.0 3.2 0.00 1.80 0.00 88 1019.7
20260504004526 4 270 0.0 3.2 0.00 1.85 0.00 89 1019.7
20260504003026 4 280 1.6 3.2 0.00 1.85 0.00 87 1019.6
20260504000007 5 225 1.6 3.2 0.00 1.85 0.00 88 1019.5
20260503234502 5 0 0.0 0.0 0.00 1.85 0.00 88 1019.6
20260503233022 5 315 0.0 3.2 0.00 1.85 0.00 87 1019.5
20260503231501 4 236 3.2 8.0 0.00 1.85 0.00 87 1019.7
20260503230002 5 243 1.6 3.2 0.00 1.85 0.00 86 1019.7
20260503224501 5 225 0.0 3.2 0.00 1.85 0.00 86 1019.7
20260503223023 5 272 1.6 3.2 0.00 1.85 0.00 86 1019.7
20260503221502 5 270 0.0 3.2 0.00 1.91 0.00 86 1019.7
20260503220002 5 272 3.2 8.0 0.00 1.98 0.00 84 1019.5
20260503214502 5 252 3.2 8.0 0.00 2.01 0.00 84 1019.7
20260503213002 6 255 4.8 8.0 0.00 2.01 0.00 81 1019.4
20260503211502 5 289 3.2 8.0 0.00 2.01 0.00 84 1019.5
20260503210032 6 250 3.2 8.0 0.00 2.01 0.00 81 1019.5
20260503204502 6 274 3.2 6.4 0.00 2.01 2.01 81 1019.5
20260503203002 5 267 3.2 3.2 0.00 2.01 2.01 82 1019.7
20260503201502 6 254 4.8 8.0 0.00 2.01 2.01 80 1019.6
20260503200003 6 245 4.8 8.0 0.00 2.01 2.01 80 1019.6
20260503194523 6 250 3.2 6.4 0.00 2.01 2.01 81 1019.6
20260503193002 6 258 4.8 8.0 0.00 2.01 2.01 80 1019.5
20260503191524 6 276 6.4 8.0 0.00 2.01 2.01 80 1019.3
20260503190004 7 357 8.0 9.7 0.00 2.01 2.01 78 1019.1
20260503184502 7 305 6.4 9.7 0.00 2.01 2.01 78 1019.1
20260503183002 6 311 6.4 9.7 0.00 2.01 2.01 80 1018.9
20260503181523 6 313 6.4 9.7 0.00 2.01 2.01 80 1018.7
20260503180004 6 308 6.4 8.0 0.00 2.01 2.01 81 1018.5
20260503174524 6 293 6.4 9.7 0.00 2.01 2.01 80 1018.4
20260503173003 6 297 4.8 6.4 0.00 2.01 2.01 81 1018.2
20260503171502 7 267 4.8 6.4 0.00 2.01 2.01 80 1017.9